Location: Beaver Brook Station
(42.3793°N, 71.2203°W)
Time: 01:05:08
(UTC+00:00)

NOSS 3-3 (C) - Pass Details

Date: 29 October 2020
Orbit: 827 x 1385 km, 63.5° (Epoch: 03 December)

Event Time Altitude Azimuth Distance (km) Brightness Sun altitude
Rises 23:25:01 0° 223° (SW) 3,401 7.5 -19.7°
Reaches altitude 10° 23:27:24 10° 226° (SW) 2,506 6.8 -20.1°
Maximum altitude 23:33:09 67° 309° (NW) 1,006 4.2 -21.2°
Enters shadow 23:38:42 15° 30° (NNE) 2,473 5.8 -22.2°
